Voltar ao catálogo

METEOR 2-8 DEB

AtivoPO
NORAD 36864·DEBRIS·🇷🇺 Russia

Lançado Mar 25, 1982 de Plesetsk Cosmodrome

Loading…

Próximas Passagens (próximas 24 horas)

TLE

AtualizadoSource: Space-Track

Época: Sep 14, 2026, 03:37 UTC

1 36864U 82025BB  26257.15091070  .00002430  00000-0  11668-2 0  9992
2 36864  82.5416 194.7865 0008000 358.7837   1.3321 14.18552333661103

Acompanhe METEOR 2-8 DEB em tempo real com AllMySat

Download on the App Store